{"data":{"norad_id":66799,"epoch":"2026-05-25T03:15:40.908096Z","epoch_age_seconds":57320,"freshness":"FRESH","line1":"1 66799U 25278J   26145.13589014  .00008900  00000+0  33246-3 0  9997","line2":"2 66799  43.0012  42.3684 0001073 270.7012  89.3717 15.27590859 26909","mean_motion":15.27590859,"eccentricity":0.0001073,"inclination_deg":43.0012,"raan_deg":42.3684,"arg_perigee_deg":270.7012,"mean_anomaly_deg":89.3717,"bstar":0.00033246,"rev_number":2690,"period_min":94.26607861104,"perigee_km":482.28037870058,"apogee_km":483.75278225895,"semimajor_km":6861.1535804798,"source":"CELESTRAK","updated_at":"2026-05-25T13:38:21.328179Z"}}